Year,Month,Day,Hour,Minute,Value (Times are PST for windgust in km/hr)
2007,01,09,00,00,0.00
2007,01,09,00,01,0.00
2007,01,09,00,02,0.00
2007,01,09,00,03,0.00
2007,01,09,00,04,0.00
2007,01,09,00,05,0.00
2007,01,09,00,06,0.00
2007,01,09,00,07,0.00
2007,01,09,00,08,1.60
2007,01,09,00,09,3.20
2007,01,09,00,10,3.20
2007,01,09,00,11,1.60
2007,01,09,00,12,1.60
2007,01,09,00,13,3.20
2007,01,09,00,14,3.20
2007,01,09,00,15,3.20
2007,01,09,00,16,1.60
2007,01,09,00,17,0.00
2007,01,09,00,18,0.00
2007,01,09,00,19,0.00
2007,01,09,00,20,0.00
2007,01,09,00,21,0.00
2007,01,09,00,22,0.00
2007,01,09,00,23,0.00
2007,01,09,00,24,0.00
2007,01,09,00,25,0.00
2007,01,09,00,26,0.00
2007,01,09,00,27,0.00
2007,01,09,00,28,0.00
2007,01,09,00,29,0.00
2007,01,09,00,30,0.00
2007,01,09,00,31,0.00
2007,01,09,00,32,0.00
2007,01,09,00,33,0.00
2007,01,09,00,34,0.00
2007,01,09,00,35,1.60
2007,01,09,00,36,3.20
2007,01,09,00,37,3.20
2007,01,09,00,38,3.20
2007,01,09,00,39,3.20
2007,01,09,00,40,1.60
2007,01,09,00,41,1.60
2007,01,09,00,42,1.60
2007,01,09,00,43,3.20
2007,01,09,00,44,3.20
2007,01,09,00,45,4.80
2007,01,09,00,46,4.80
2007,01,09,00,47,3.20
2007,01,09,00,48,4.80
2007,01,09,00,49,3.20
2007,01,09,00,50,3.20
2007,01,09,00,51,1.60
2007,01,09,00,52,0.00
2007,01,09,00,53,0.00
2007,01,09,00,54,0.00
2007,01,09,00,55,0.00
2007,01,09,00,56,0.00
2007,01,09,00,57,0.00
2007,01,09,00,58,0.00
2007,01,09,00,59,0.00
2007,01,09,01,00,0.00
2007,01,09,01,01,0.00
2007,01,09,01,02,0.00
2007,01,09,01,03,0.00
2007,01,09,01,04,0.00
2007,01,09,01,05,0.00
2007,01,09,01,06,0.00
2007,01,09,01,07,0.00
2007,01,09,01,08,0.00
2007,01,09,01,09,1.60
2007,01,09,01,10,1.60
2007,01,09,01,11,1.60
2007,01,09,01,12,1.60
2007,01,09,01,13,0.00
2007,01,09,01,14,0.00
2007,01,09,01,15,0.00
2007,01,09,01,16,0.00
2007,01,09,01,17,0.00
2007,01,09,01,18,0.00
2007,01,09,01,19,0.00
2007,01,09,01,20,0.00
2007,01,09,01,21,1.60
2007,01,09,01,22,1.60
2007,01,09,01,23,1.60
2007,01,09,01,24,0.00
2007,01,09,01,25,1.60
2007,01,09,01,26,1.60
2007,01,09,01,27,1.60
2007,01,09,01,28,1.60
2007,01,09,01,29,1.60
2007,01,09,01,30,1.60
2007,01,09,01,31,0.00
2007,01,09,01,32,0.00
2007,01,09,01,33,0.00
2007,01,09,01,34,0.00
2007,01,09,01,35,0.00
2007,01,09,01,36,0.00
2007,01,09,01,37,0.00
2007,01,09,01,38,3.20
2007,01,09,01,39,3.20
2007,01,09,01,40,4.80
2007,01,09,01,41,4.80
2007,01,09,01,42,3.20
2007,01,09,01,43,4.80
2007,01,09,01,44,3.20
2007,01,09,01,45,3.20
2007,01,09,01,46,3.20
2007,01,09,01,47,3.20
2007,01,09,01,48,3.20
2007,01,09,01,49,1.60
2007,01,09,01,50,1.60
2007,01,09,01,51,1.60
2007,01,09,01,52,1.60
2007,01,09,01,53,0.00
2007,01,09,01,54,0.00
2007,01,09,01,55,1.60
2007,01,09,01,56,1.60
2007,01,09,01,57,1.60
2007,01,09,01,58,1.60
2007,01,09,01,59,0.00
2007,01,09,02,00,0.00
2007,01,09,02,01,0.00
2007,01,09,02,02,0.00
2007,01,09,02,03,0.00
2007,01,09,02,04,0.00
2007,01,09,02,05,1.60
2007,01,09,02,06,1.60
2007,01,09,02,07,4.80
2007,01,09,02,08,4.80
2007,01,09,02,09,3.20
2007,01,09,02,10,3.20
2007,01,09,02,11,1.60
2007,01,09,02,12,3.20
2007,01,09,02,13,1.60
2007,01,09,02,14,1.60
2007,01,09,02,15,0.00
2007,01,09,02,16,0.00
2007,01,09,02,17,0.00
2007,01,09,02,18,1.60
2007,01,09,02,19,3.20
2007,01,09,02,20,1.60
2007,01,09,02,21,1.60
2007,01,09,02,22,1.60
2007,01,09,02,23,0.00
2007,01,09,02,24,0.00
2007,01,09,02,25,0.00
2007,01,09,02,26,0.00
2007,01,09,02,27,0.00
2007,01,09,02,28,0.00
2007,01,09,02,29,0.00
2007,01,09,02,30,0.00
2007,01,09,02,31,1.60
2007,01,09,02,32,0.00
2007,01,09,02,33,1.60
2007,01,09,02,34,0.00
2007,01,09,02,35,0.00
2007,01,09,02,36,0.00
2007,01,09,02,37,0.00
2007,01,09,02,38,0.00
2007,01,09,02,39,1.60
2007,01,09,02,40,1.60
2007,01,09,02,41,1.60
2007,01,09,02,42,1.60
2007,01,09,02,43,3.20
2007,01,09,02,44,4.80
2007,01,09,02,45,4.80
2007,01,09,02,46,4.80
2007,01,09,02,47,4.80
2007,01,09,02,48,4.80
2007,01,09,02,49,3.20
2007,01,09,02,50,3.20
2007,01,09,02,51,0.00
2007,01,09,02,52,0.00
2007,01,09,02,53,0.00
2007,01,09,02,54,0.00
2007,01,09,02,55,1.60
2007,01,09,02,56,0.00
2007,01,09,02,57,1.60
2007,01,09,02,58,3.20
2007,01,09,02,59,3.20
2007,01,09,03,00,3.20
2007,01,09,03,01,1.60
2007,01,09,03,02,1.60
2007,01,09,03,03,0.00
2007,01,09,03,04,0.00
2007,01,09,03,05,0.00
2007,01,09,03,06,0.00
2007,01,09,03,07,1.60
2007,01,09,03,08,0.00
2007,01,09,03,09,0.00
2007,01,09,03,10,0.00
2007,01,09,03,11,1.60
2007,01,09,03,12,0.00
2007,01,09,03,13,0.00
2007,01,09,03,14,4.80
2007,01,09,03,15,6.40
2007,01,09,03,16,4.80
2007,01,09,03,17,1.60
2007,01,09,03,18,1.60
2007,01,09,03,19,3.20
2007,01,09,03,20,3.20
2007,01,09,03,21,3.20
2007,01,09,03,22,3.20
2007,01,09,03,23,3.20
2007,01,09,03,24,0.00
2007,01,09,03,25,1.60
2007,01,09,03,26,1.60
2007,01,09,03,27,1.60
2007,01,09,03,28,1.60
2007,01,09,03,29,1.60
2007,01,09,03,30,1.60
2007,01,09,03,31,1.60
2007,01,09,03,32,3.20
2007,01,09,03,33,3.20
2007,01,09,03,34,1.60
2007,01,09,03,35,1.60
2007,01,09,03,36,0.00
2007,01,09,03,37,1.60
2007,01,09,03,38,1.60
2007,01,09,03,39,1.60
2007,01,09,03,40,0.00
2007,01,09,03,41,0.00
2007,01,09,03,42,0.00
2007,01,09,03,43,3.20
2007,01,09,03,44,4.80
2007,01,09,03,45,3.20
2007,01,09,03,46,3.20
2007,01,09,03,47,4.80
2007,01,09,03,48,4.80
2007,01,09,03,49,3.20
2007,01,09,03,50,3.20
2007,01,09,03,51,3.20
2007,01,09,03,52,4.80
2007,01,09,03,53,3.20
2007,01,09,03,54,1.60
2007,01,09,03,55,0.00
2007,01,09,03,56,0.00
2007,01,09,03,57,3.20
2007,01,09,03,58,3.20
2007,01,09,03,59,3.20
2007,01,09,04,00,1.60
2007,01,09,04,01,3.20
2007,01,09,04,02,3.20
2007,01,09,04,03,3.20
2007,01,09,04,04,1.60
2007,01,09,04,05,0.00
2007,01,09,04,06,0.00
2007,01,09,04,07,0.00
2007,01,09,04,08,0.00
2007,01,09,04,09,1.60
2007,01,09,04,10,1.60
2007,01,09,04,11,0.00
2007,01,09,04,12,1.60
2007,01,09,04,13,1.60
2007,01,09,04,14,1.60
2007,01,09,04,15,1.60
2007,01,09,04,16,0.00
2007,01,09,04,17,1.60
2007,01,09,04,18,1.60
2007,01,09,04,19,1.60
2007,01,09,04,20,0.00
2007,01,09,04,21,0.00
2007,01,09,04,22,0.00
2007,01,09,04,23,1.60
2007,01,09,04,24,1.60
2007,01,09,04,25,0.00
2007,01,09,04,26,1.60
2007,01,09,04,27,1.60
2007,01,09,04,28,1.60
2007,01,09,04,29,3.20
2007,01,09,04,30,4.80
2007,01,09,04,31,3.20
2007,01,09,04,32,3.20
2007,01,09,04,33,1.60
2007,01,09,04,34,3.20
2007,01,09,04,35,3.20
2007,01,09,04,36,3.20
2007,01,09,04,37,1.60
2007,01,09,04,38,1.60
2007,01,09,04,39,1.60
2007,01,09,04,40,1.60
2007,01,09,04,41,1.60
2007,01,09,04,42,1.60
2007,01,09,04,43,0.00
2007,01,09,04,44,3.20
2007,01,09,04,45,3.20
2007,01,09,04,46,1.60
2007,01,09,04,47,3.20
2007,01,09,04,48,3.20
2007,01,09,04,49,3.20
2007,01,09,04,50,1.60
2007,01,09,04,51,1.60
2007,01,09,04,52,0.00
2007,01,09,04,53,1.60
2007,01,09,04,54,1.60
2007,01,09,04,55,1.60
2007,01,09,04,56,0.00
2007,01,09,04,57,3.20
2007,01,09,04,58,1.60
2007,01,09,04,59,1.60
2007,01,09,05,00,3.20
2007,01,09,05,01,1.60
2007,01,09,05,02,1.60
2007,01,09,05,03,3.20
2007,01,09,05,04,4.80
2007,01,09,05,05,4.80
2007,01,09,05,06,6.40
2007,01,09,05,07,3.20
2007,01,09,05,08,3.20
2007,01,09,05,09,3.20
2007,01,09,05,10,3.20
2007,01,09,05,11,3.20
2007,01,09,05,12,4.80
2007,01,09,05,13,4.80
2007,01,09,05,14,3.20
2007,01,09,05,15,4.80
2007,01,09,05,16,4.80
2007,01,09,05,17,4.80
2007,01,09,05,18,0.00
2007,01,09,05,19,0.00
2007,01,09,05,20,0.00
2007,01,09,05,21,0.00
2007,01,09,05,22,1.60
2007,01,09,05,23,1.60
2007,01,09,05,24,1.60
2007,01,09,05,25,1.60
2007,01,09,05,26,1.60
2007,01,09,05,27,0.00
2007,01,09,05,28,1.60
2007,01,09,05,29,1.60
2007,01,09,05,30,9.60
2007,01,09,05,31,1.60
2007,01,09,05,32,0.00
2007,01,09,05,33,1.60
2007,01,09,05,34,1.60
2007,01,09,05,35,1.60
2007,01,09,05,36,3.20
2007,01,09,05,37,3.20
2007,01,09,05,38,0.00
2007,01,09,05,39,1.60
2007,01,09,05,40,1.60
2007,01,09,05,41,0.00
2007,01,09,05,42,4.80
2007,01,09,05,43,3.20
2007,01,09,05,44,3.20
2007,01,09,05,45,3.20
2007,01,09,05,46,3.20
2007,01,09,05,47,1.60
2007,01,09,05,48,3.20
2007,01,09,05,49,3.20
2007,01,09,05,50,4.80
2007,01,09,05,51,3.20
2007,01,09,05,52,3.20
2007,01,09,05,53,3.20
2007,01,09,05,54,4.80
2007,01,09,05,55,4.80
2007,01,09,05,56,1.60
2007,01,09,05,57,4.80
2007,01,09,05,58,4.80
2007,01,09,05,59,3.20
2007,01,09,06,00,3.20
2007,01,09,06,01,3.20
2007,01,09,06,02,3.20
2007,01,09,06,03,3.20
2007,01,09,06,04,3.20
2007,01,09,06,05,1.60
2007,01,09,06,06,3.20
2007,01,09,06,07,3.20
2007,01,09,06,08,4.80
2007,01,09,06,09,6.40
2007,01,09,06,10,4.80
2007,01,09,06,11,1.60
2007,01,09,06,12,1.60
2007,01,09,06,13,1.60
2007,01,09,06,14,1.60
2007,01,09,06,15,3.20
2007,01,09,06,16,3.20
2007,01,09,06,17,4.80
2007,01,09,06,18,3.20
2007,01,09,06,19,3.20
2007,01,09,06,20,1.60
2007,01,09,06,21,0.00
2007,01,09,06,22,0.00
2007,01,09,06,23,1.60
2007,01,09,06,24,3.20
2007,01,09,06,25,3.20
2007,01,09,06,26,3.20
2007,01,09,06,27,3.20
2007,01,09,06,28,4.80
2007,01,09,06,29,6.40
2007,01,09,06,30,4.80
2007,01,09,06,31,3.20
2007,01,09,06,32,1.60
2007,01,09,06,33,1.60
2007,01,09,06,34,3.20
2007,01,09,06,35,3.20
2007,01,09,06,36,1.60
2007,01,09,06,37,0.00
2007,01,09,06,38,1.60
2007,01,09,06,39,3.20
2007,01,09,06,40,1.60
2007,01,09,06,41,4.80
2007,01,09,06,42,4.80
2007,01,09,06,43,4.80
2007,01,09,06,44,4.80
2007,01,09,06,45,1.60
2007,01,09,06,46,1.60
2007,01,09,06,47,1.60
2007,01,09,06,48,3.20
2007,01,09,06,49,4.80
2007,01,09,06,50,3.20
2007,01,09,06,51,3.20
2007,01,09,06,52,4.80
2007,01,09,06,53,3.20
2007,01,09,06,54,3.20
2007,01,09,06,55,4.80
2007,01,09,06,56,3.20
2007,01,09,06,57,3.20
2007,01,09,06,58,4.80
2007,01,09,06,59,3.20
2007,01,09,07,00,3.20
2007,01,09,07,01,1.60
2007,01,09,07,02,1.60
2007,01,09,07,03,3.20
2007,01,09,07,04,1.60
2007,01,09,07,05,0.00
2007,01,09,07,06,0.00
2007,01,09,07,07,0.00
2007,01,09,07,08,0.00
2007,01,09,07,09,1.60
2007,01,09,07,10,3.20
2007,01,09,07,11,3.20
2007,01,09,07,12,4.80
2007,01,09,07,13,4.80
2007,01,09,07,14,3.20
2007,01,09,07,15,3.20
2007,01,09,07,16,3.20
2007,01,09,07,17,8.10
2007,01,09,07,18,6.40
2007,01,09,07,19,4.80
2007,01,09,07,20,1.60
2007,01,09,07,21,3.20
2007,01,09,07,22,4.80
2007,01,09,07,23,4.80
2007,01,09,07,24,6.40
2007,01,09,07,25,3.20
2007,01,09,07,26,3.20
2007,01,09,07,27,4.80
2007,01,09,07,28,4.80
2007,01,09,07,29,4.80
2007,01,09,07,30,1.60
2007,01,09,07,31,1.60
2007,01,09,07,32,3.20
2007,01,09,07,33,1.60
2007,01,09,07,34,0.00
2007,01,09,07,35,4.80
2007,01,09,07,36,3.20
2007,01,09,07,37,3.20
2007,01,09,07,38,4.80
2007,01,09,07,39,3.20
2007,01,09,07,40,3.20
2007,01,09,07,41,3.20
2007,01,09,07,42,1.60
2007,01,09,07,43,1.60
2007,01,09,07,44,3.20
2007,01,09,07,45,3.20
2007,01,09,07,46,6.40
2007,01,09,07,47,3.20
2007,01,09,07,48,4.80
2007,01,09,07,49,4.80
2007,01,09,07,50,4.80
2007,01,09,07,51,3.20
2007,01,09,07,52,1.60
2007,01,09,07,53,3.20
2007,01,09,07,54,4.80
2007,01,09,07,55,4.80
2007,01,09,07,56,1.60
2007,01,09,07,57,4.80
2007,01,09,07,58,4.80
2007,01,09,07,59,6.40
2007,01,09,08,00,3.20
2007,01,09,08,01,3.20
2007,01,09,08,02,3.20
2007,01,09,08,03,4.80
2007,01,09,08,04,4.80
2007,01,09,08,05,4.80
2007,01,09,08,06,8.10
2007,01,09,08,07,6.40
2007,01,09,08,08,6.40
2007,01,09,08,09,3.20
2007,01,09,08,10,1.60
2007,01,09,08,11,3.20
2007,01,09,08,12,1.60
2007,01,09,08,13,6.40
2007,01,09,08,14,4.80
2007,01,09,08,15,3.20
2007,01,09,08,16,4.80
2007,01,09,08,17,9.60
2007,01,09,08,18,6.40
2007,01,09,08,19,8.10
2007,01,09,08,20,8.10
2007,01,09,08,21,6.40
2007,01,09,08,22,3.20
2007,01,09,08,23,8.10
2007,01,09,08,24,4.80
2007,01,09,08,25,6.40
2007,01,09,08,26,3.20
2007,01,09,08,27,1.60
2007,01,09,08,28,3.20
2007,01,09,08,29,4.80
2007,01,09,08,30,8.10
2007,01,09,08,31,8.10
2007,01,09,08,32,3.20
2007,01,09,08,33,6.40
2007,01,09,08,34,4.80
2007,01,09,08,35,4.80
2007,01,09,08,36,8.10
2007,01,09,08,37,4.80
2007,01,09,08,38,12.90
2007,01,09,08,39,9.60
2007,01,09,08,40,9.60
2007,01,09,08,41,8.10
2007,01,09,08,42,6.40
2007,01,09,08,43,8.10
2007,01,09,08,44,6.40
2007,01,09,08,45,8.10
2007,01,09,08,46,6.40
2007,01,09,08,47,3.20
2007,01,09,08,48,1.60
2007,01,09,08,49,3.20
2007,01,09,08,50,3.20
2007,01,09,08,51,4.80
2007,01,09,08,52,3.20
2007,01,09,08,53,3.20
2007,01,09,08,54,3.20
2007,01,09,08,55,3.20
2007,01,09,08,56,3.20
2007,01,09,08,57,8.10
2007,01,09,08,58,6.40
2007,01,09,08,59,6.40
2007,01,09,09,00,4.80
2007,01,09,09,01,6.40
2007,01,09,09,02,6.40
2007,01,09,09,03,6.40
2007,01,09,09,04,11.30
2007,01,09,09,05,9.60
2007,01,09,09,06,8.10
2007,01,09,09,07,4.80
2007,01,09,09,08,4.80
2007,01,09,09,09,4.80
2007,01,09,09,10,11.30
2007,01,09,09,11,8.10
2007,01,09,09,12,8.10
2007,01,09,09,13,8.10
2007,01,09,09,14,4.80
2007,01,09,09,15,1.60
2007,01,09,09,16,8.10
2007,01,09,09,17,3.20
2007,01,09,09,18,3.20
2007,01,09,09,19,4.80
2007,01,09,09,20,4.80
2007,01,09,09,21,1.60
2007,01,09,09,22,4.80
2007,01,09,09,23,6.40
2007,01,09,09,24,6.40
2007,01,09,09,25,4.80
2007,01,09,09,26,3.20
2007,01,09,09,27,4.80
2007,01,09,09,28,4.80
2007,01,09,09,29,4.80
2007,01,09,09,30,4.80
2007,01,09,09,31,4.80
2007,01,09,09,32,4.80
2007,01,09,09,33,4.80
2007,01,09,09,34,4.80
2007,01,09,09,35,3.20
2007,01,09,09,36,4.80
2007,01,09,09,37,1.60
2007,01,09,09,38,3.20
2007,01,09,09,39,4.80
2007,01,09,09,40,6.40
2007,01,09,09,41,4.80
2007,01,09,09,42,4.80
2007,01,09,09,43,6.40
2007,01,09,09,44,6.40
2007,01,09,09,45,6.40
2007,01,09,09,46,8.10
2007,01,09,09,47,9.60
2007,01,09,09,48,4.80
2007,01,09,09,49,9.60
2007,01,09,09,50,8.10
2007,01,09,09,51,6.40
2007,01,09,09,52,3.20
2007,01,09,09,53,4.80
2007,01,09,09,54,4.80
2007,01,09,09,55,3.20
2007,01,09,09,56,4.80
2007,01,09,09,57,3.20
2007,01,09,09,58,1.60
2007,01,09,09,59,3.20
2007,01,09,10,00,3.20
2007,01,09,10,01,3.20
2007,01,09,10,02,3.20
2007,01,09,10,03,4.80
2007,01,09,10,04,6.40
2007,01,09,10,05,4.80
2007,01,09,10,06,4.80
2007,01,09,10,07,6.40
2007,01,09,10,08,6.40
2007,01,09,10,09,3.20
2007,01,09,10,10,1.60
2007,01,09,10,11,4.80
2007,01,09,10,12,4.80
2007,01,09,10,13,4.80
2007,01,09,10,14,6.40
2007,01,09,10,15,6.40
2007,01,09,10,16,4.80
2007,01,09,10,17,4.80
2007,01,09,10,18,6.40
2007,01,09,10,19,4.80
2007,01,09,10,20,1.60
2007,01,09,10,21,6.40
2007,01,09,10,22,6.40
2007,01,09,10,23,6.40
2007,01,09,10,24,6.40
2007,01,09,10,25,4.80
2007,01,09,10,26,6.40
2007,01,09,10,27,1.60
2007,01,09,10,28,1.60
2007,01,09,10,29,3.20
2007,01,09,10,30,3.20
2007,01,09,10,31,4.80
2007,01,09,10,32,3.20
2007,01,09,10,33,3.20
2007,01,09,10,34,1.60
2007,01,09,10,35,1.60
2007,01,09,10,36,4.80
2007,01,09,10,37,3.20
2007,01,09,10,38,3.20
2007,01,09,10,39,0.00
2007,01,09,10,40,1.60
2007,01,09,10,41,1.60
2007,01,09,10,42,0.00
2007,01,09,10,43,1.60
2007,01,09,10,44,3.20
2007,01,09,10,45,1.60
2007,01,09,10,46,3.20
2007,01,09,10,47,4.80
2007,01,09,10,48,1.60
2007,01,09,10,49,3.20
2007,01,09,10,50,3.20
2007,01,09,10,51,3.20
2007,01,09,10,52,1.60
2007,01,09,10,53,3.20
2007,01,09,10,54,1.60
2007,01,09,10,55,1.60
2007,01,09,10,56,3.20
2007,01,09,10,57,3.20
2007,01,09,10,58,6.40
2007,01,09,10,59,4.80
2007,01,09,11,00,4.80
2007,01,09,11,01,4.80
2007,01,09,11,02,4.80
2007,01,09,11,03,3.20
2007,01,09,11,04,4.80
2007,01,09,11,05,4.80
2007,01,09,11,06,1.60
2007,01,09,11,07,1.60
2007,01,09,11,08,1.60
2007,01,09,11,09,3.20
2007,01,09,11,10,3.20
2007,01,09,11,11,3.20
2007,01,09,11,12,0.00
2007,01,09,11,13,3.20
2007,01,09,11,14,3.20
2007,01,09,11,15,3.20
2007,01,09,11,16,3.20
2007,01,09,11,17,4.80
2007,01,09,11,18,4.80
2007,01,09,11,19,3.20
2007,01,09,11,20,3.20
2007,01,09,11,21,3.20
2007,01,09,11,22,3.20
2007,01,09,11,23,4.80
2007,01,09,11,24,4.80
2007,01,09,11,25,3.20
2007,01,09,11,26,3.20
2007,01,09,11,27,3.20
2007,01,09,11,28,4.80
2007,01,09,11,29,4.80
2007,01,09,11,30,6.40
2007,01,09,11,31,6.40
2007,01,09,11,32,4.80
2007,01,09,11,33,3.20
2007,01,09,11,34,9.60
2007,01,09,11,35,8.10
2007,01,09,11,36,9.60
2007,01,09,11,37,8.10
2007,01,09,11,38,4.80
2007,01,09,11,39,8.10
2007,01,09,11,40,6.40
2007,01,09,11,41,9.60
2007,01,09,11,42,6.40
2007,01,09,11,43,4.80
2007,01,09,11,44,8.10
2007,01,09,11,45,3.20
2007,01,09,11,46,6.40
2007,01,09,11,47,8.10
2007,01,09,11,48,14.50
2007,01,09,11,49,12.90
2007,01,09,11,50,9.60
2007,01,09,11,51,6.40
2007,01,09,11,52,9.60
2007,01,09,11,53,6.40
2007,01,09,11,54,3.20
2007,01,09,11,55,8.10
2007,01,09,11,56,4.80
2007,01,09,11,57,8.10
2007,01,09,11,58,8.10
2007,01,09,11,59,8.10
2007,01,09,12,00,9.60
2007,01,09,12,01,6.40
2007,01,09,12,02,8.10
2007,01,09,12,03,8.10
2007,01,09,12,04,3.20
2007,01,09,12,05,3.20
2007,01,09,12,06,4.80
2007,01,09,12,07,4.80
2007,01,09,12,08,3.20
2007,01,09,12,09,6.40
2007,01,09,12,10,6.40
2007,01,09,12,11,3.20
2007,01,09,12,12,1.60
2007,01,09,12,13,3.20
2007,01,09,12,14,4.80
2007,01,09,12,15,8.10
2007,01,09,12,16,4.80
2007,01,09,12,17,3.20
2007,01,09,12,18,6.40
2007,01,09,12,19,6.40
2007,01,09,12,20,6.40
2007,01,09,12,21,6.40
2007,01,09,12,22,4.80
2007,01,09,12,23,3.20
2007,01,09,12,24,3.20
2007,01,09,12,25,6.40
2007,01,09,12,26,4.80
2007,01,09,12,27,4.80
2007,01,09,12,28,3.20
2007,01,09,12,29,3.20
2007,01,09,12,30,3.20
2007,01,09,12,31,1.60
2007,01,09,12,32,0.00
2007,01,09,12,33,3.20
2007,01,09,12,34,3.20
2007,01,09,12,35,4.80
2007,01,09,12,36,3.20
2007,01,09,12,37,3.20
2007,01,09,12,38,4.80
2007,01,09,12,39,6.40
2007,01,09,12,40,6.40
2007,01,09,12,41,6.40
2007,01,09,12,42,6.40
2007,01,09,12,43,3.20
2007,01,09,12,44,3.20
2007,01,09,12,45,4.80
2007,01,09,12,46,4.80
2007,01,09,12,47,4.80
2007,01,09,12,48,4.80
2007,01,09,12,49,4.80
2007,01,09,12,50,4.80
2007,01,09,12,51,4.80
2007,01,09,12,52,3.20
2007,01,09,12,53,4.80
2007,01,09,12,54,6.40
2007,01,09,12,55,4.80
2007,01,09,12,56,19.30
2007,01,09,12,57,20.90
2007,01,09,12,58,9.60
2007,01,09,12,59,11.30
2007,01,09,13,00,17.70
2007,01,09,13,01,25.70
2007,01,09,13,02,17.70
2007,01,09,13,03,25.70
2007,01,09,13,04,29.00
2007,01,09,13,05,30.60
2007,01,09,13,06,29.00
2007,01,09,13,07,30.60
2007,01,09,13,08,30.60
2007,01,09,13,09,30.60
2007,01,09,13,10,32.20
2007,01,09,13,11,27.40
2007,01,09,13,12,19.30
2007,01,09,13,13,32.20
2007,01,09,13,14,29.00
2007,01,09,13,15,38.60
2007,01,09,13,16,33.80
2007,01,09,13,17,29.00
2007,01,09,13,18,30.60
2007,01,09,13,19,32.20
2007,01,09,13,20,41.80
2007,01,09,13,21,38.60
2007,01,09,13,22,32.20
2007,01,09,13,23,40.20
2007,01,09,13,24,27.40
2007,01,09,13,25,25.70
2007,01,09,13,26,32.20
2007,01,09,13,27,33.80
2007,01,09,13,28,33.80
2007,01,09,13,29,29.00
2007,01,09,13,30,22.50
2007,01,09,13,31,24.20
2007,01,09,13,32,41.80
2007,01,09,13,33,32.20
2007,01,09,13,34,25.70
2007,01,09,13,35,32.20
2007,01,09,13,36,35.40
2007,01,09,13,37,24.20
2007,01,09,13,38,25.70
2007,01,09,13,39,33.80
2007,01,09,13,40,29.00
2007,01,09,13,41,24.20
2007,01,09,13,42,27.40
2007,01,09,13,43,32.20
2007,01,09,13,44,37.00
2007,01,09,13,45,24.20
2007,01,09,13,46,32.20
2007,01,09,13,47,35.40
2007,01,09,13,48,27.40
2007,01,09,13,49,27.40
2007,01,09,13,50,22.50
2007,01,09,13,51,46.70
2007,01,09,13,52,41.80
2007,01,09,13,53,33.80
2007,01,09,13,54,29.00
2007,01,09,13,55,40.20
2007,01,09,13,56,51.50
2007,01,09,13,57,77.30
2007,01,09,13,58,56.30
2007,01,09,13,59,49.90
2007,01,09,14,00,53.10
2007,01,09,14,01,41.80
2007,01,09,14,02,56.30
2007,01,09,14,03,48.30
2007,01,09,14,04,29.00
2007,01,09,14,05,57.90
2007,01,09,14,06,38.60
2007,01,09,14,07,35.40
2007,01,09,14,08,41.80
2007,01,09,14,09,33.80
2007,01,09,14,10,37.00
2007,01,09,14,11,43.50
2007,01,09,14,12,33.80
2007,01,09,14,13,43.50
2007,01,09,14,14,40.20
2007,01,09,14,15,30.60
2007,01,09,14,16,38.60
2007,01,09,14,17,41.80
2007,01,09,14,18,54.70
2007,01,09,14,19,30.60
2007,01,09,14,20,33.80
2007,01,09,14,21,30.60
2007,01,09,14,22,49.90
2007,01,09,14,23,38.60
2007,01,09,14,24,48.30
2007,01,09,14,25,46.70
2007,01,09,14,26,35.40
2007,01,09,14,27,38.60
2007,01,09,14,28,41.80
2007,01,09,14,29,30.60
2007,01,09,14,30,24.20
2007,01,09,14,31,35.40
2007,01,09,14,32,35.40
2007,01,09,14,33,37.00
2007,01,09,14,34,35.40
2007,01,09,14,35,35.40
2007,01,09,14,36,37.00
2007,01,09,14,37,25.70
2007,01,09,14,38,40.20
2007,01,09,14,39,37.00
2007,01,09,14,40,57.90
2007,01,09,14,41,51.50
2007,01,09,14,42,48.30
2007,01,09,14,43,35.40
2007,01,09,14,44,43.50
2007,01,09,14,45,45.10
2007,01,09,14,46,37.00
2007,01,09,14,47,43.50
2007,01,09,14,48,37.00
2007,01,09,14,49,43.50
2007,01,09,14,50,38.60
2007,01,09,14,51,43.50
2007,01,09,14,52,43.50
2007,01,09,14,53,43.50
2007,01,09,14,54,51.50
2007,01,09,14,55,37.00
2007,01,09,14,56,22.50
2007,01,09,14,57,24.20
2007,01,09,14,58,35.40
2007,01,09,14,59,53.10
2007,01,09,15,00,32.20
2007,01,09,15,01,24.20
2007,01,09,15,02,33.80
2007,01,09,15,03,33.80
2007,01,09,15,04,25.70
2007,01,09,15,05,49.90
2007,01,09,15,06,38.60
2007,01,09,15,07,46.70
2007,01,09,15,08,45.10
2007,01,09,15,09,37.00
2007,01,09,15,10,37.00
2007,01,09,15,11,38.60
2007,01,09,15,12,30.60
2007,01,09,15,13,37.00
2007,01,09,15,14,41.80
2007,01,09,15,15,40.20
2007,01,09,15,16,27.40
2007,01,09,15,17,20.90
2007,01,09,15,18,33.80
2007,01,09,15,19,33.80
2007,01,09,15,20,30.60
2007,01,09,15,21,30.60
2007,01,09,15,22,30.60
2007,01,09,15,23,43.50
2007,01,09,15,24,29.00
2007,01,09,15,25,33.80
2007,01,09,15,26,33.80
2007,01,09,15,27,33.80
2007,01,09,15,28,35.40
2007,01,09,15,29,32.20
2007,01,09,15,30,40.20
2007,01,09,15,31,30.60
2007,01,09,15,32,24.20
2007,01,09,15,33,30.60
2007,01,09,15,34,25.70
2007,01,09,15,35,27.40
2007,01,09,15,36,38.60
2007,01,09,15,37,45.10
2007,01,09,15,38,53.10
2007,01,09,15,39,29.00
2007,01,09,15,40,32.20
2007,01,09,15,41,25.70
2007,01,09,15,42,19.30
2007,01,09,15,43,20.90
2007,01,09,15,44,22.50
2007,01,09,15,45,16.10
2007,01,09,15,46,30.60
2007,01,09,15,47,20.90
2007,01,09,15,48,17.70
2007,01,09,15,49,11.30
2007,01,09,15,50,17.70
2007,01,09,15,51,11.30
2007,01,09,15,52,19.30
2007,01,09,15,53,37.00
2007,01,09,15,54,32.20
2007,01,09,15,55,35.40
2007,01,09,15,56,25.70
2007,01,09,15,57,25.70
2007,01,09,15,58,30.60
2007,01,09,15,59,25.70
2007,01,09,16,00,14.50
2007,01,09,16,01,11.30
2007,01,09,16,02,14.50
2007,01,09,16,03,11.30
2007,01,09,16,04,17.70
2007,01,09,16,05,29.00
2007,01,09,16,06,37.00
2007,01,09,16,07,24.20
2007,01,09,16,08,24.20
2007,01,09,16,09,30.60
2007,01,09,16,10,22.50
2007,01,09,16,11,22.50
2007,01,09,16,12,29.00
2007,01,09,16,13,30.60
2007,01,09,16,14,35.40
2007,01,09,16,15,27.40
2007,01,09,16,16,33.80
2007,01,09,16,17,29.00
2007,01,09,16,18,29.00
2007,01,09,16,19,32.20
2007,01,09,16,20,38.60
2007,01,09,16,21,29.00
2007,01,09,16,22,38.60
2007,01,09,16,23,35.40
2007,01,09,16,24,25.70
2007,01,09,16,25,25.70
2007,01,09,16,26,32.20
2007,01,09,16,27,37.00
2007,01,09,16,28,37.00
2007,01,09,16,29,38.60
2007,01,09,16,30,24.20
2007,01,09,16,31,24.20
2007,01,09,16,32,29.00
2007,01,09,16,33,25.70
2007,01,09,16,34,29.00
2007,01,09,16,35,25.70
2007,01,09,16,36,24.20
2007,01,09,16,37,33.80
2007,01,09,16,38,32.20
2007,01,09,16,39,33.80
2007,01,09,16,40,24.20
2007,01,09,16,41,33.80
2007,01,09,16,42,35.40
2007,01,09,16,43,33.80
2007,01,09,16,44,20.90
2007,01,09,16,45,37.00
2007,01,09,16,46,24.20
2007,01,09,16,47,32.20
2007,01,09,16,48,38.60
2007,01,09,16,49,48.30
2007,01,09,16,50,40.20
2007,01,09,16,51,35.40
2007,01,09,16,52,35.40
2007,01,09,16,53,37.00
2007,01,09,16,54,32.20
2007,01,09,16,55,24.20
2007,01,09,16,56,27.40
2007,01,09,16,57,38.60
2007,01,09,16,58,35.40
2007,01,09,16,59,45.10
2007,01,09,17,00,40.20
2007,01,09,17,01,29.00
2007,01,09,17,02,25.70
2007,01,09,17,03,29.00
2007,01,09,17,04,29.00
2007,01,09,17,05,29.00
2007,01,09,17,06,22.50
2007,01,09,17,07,27.40
2007,01,09,17,08,33.80
2007,01,09,17,09,33.80
2007,01,09,17,10,25.70
2007,01,09,17,11,33.80
2007,01,09,17,12,33.80
2007,01,09,17,13,27.40
2007,01,09,17,14,33.80
2007,01,09,17,15,27.40
2007,01,09,17,16,22.50
2007,01,09,17,17,24.20
2007,01,09,17,18,27.40
2007,01,09,17,19,25.70
2007,01,09,17,20,29.00
2007,01,09,17,21,17.70
2007,01,09,17,22,24.20
2007,01,09,17,23,38.60
2007,01,09,17,24,38.60
2007,01,09,17,25,19.30
2007,01,09,17,26,19.30
2007,01,09,17,27,9.60
2007,01,09,17,28,20.90
2007,01,09,17,29,27.40
2007,01,09,17,30,30.60
2007,01,09,17,31,25.70
2007,01,09,17,32,30.60
2007,01,09,17,33,27.40
2007,01,09,17,34,16.10
2007,01,09,17,35,24.20
2007,01,09,17,36,22.50
2007,01,09,17,37,9.60
2007,01,09,17,38,24.20
2007,01,09,17,39,16.10
2007,01,09,17,40,19.30
2007,01,09,17,41,22.50
2007,01,09,17,42,22.50
2007,01,09,17,43,20.90
2007,01,09,17,44,14.50
2007,01,09,17,45,12.90
2007,01,09,17,46,20.90
2007,01,09,17,47,16.10
2007,01,09,17,48,17.70
2007,01,09,17,49,12.90
2007,01,09,17,50,14.50
2007,01,09,17,51,22.50
2007,01,09,17,52,20.90
2007,01,09,17,53,24.20